Time,TemperatureF,DewpointF,PressureIn,WindDirection,WindDirectionDegrees,WindSpeedMPH,WindSpeedGustMPH,Humidity,HourlyPrecipIn,Conditions,Clouds,dailyrainin,SoftwareType,DateUTC
2013-02-28 00:00:00,37.9,36.9,29.70,SE,127,0.0,0.0,96,0.00,,FEW060,0.00,VWS V14.01,2013-02-28 05:00:00,
2013-02-28 00:05:00,37.7,36.4,29.70,SE,127,0.0,0.0,95,0.00,,FEW060,0.00,VWS V14.01,2013-02-28 05:05:00,
2013-02-28 00:10:00,37.5,36.2,29.70,SE,127,0.0,1.0,95,0.00,,FEW060,0.00,VWS V14.01,2013-02-28 05:10:00,
2013-02-28 00:15:00,37.5,36.5,29.70,SE,127,0.0,0.0,96,0.00,,FEW060,0.00,VWS V14.01,2013-02-28 05:15:00,
2013-02-28 00:20:00,37.5,36.5,29.70,SE,127,0.0,0.0,96,0.00,,FEW060,0.00,VWS V14.01,2013-02-28 05:20:00,
2013-02-28 00:25:00,37.7,36.7,29.69,SE,127,0.0,0.0,96,0.00,,FEW060,0.00,VWS V14.01,2013-02-28 05:25:00,
2013-02-28 00:30:00,37.9,36.9,29.69,SE,127,0.0,0.0,96,0.00,,FEW060,0.00,VWS V14.01,2013-02-28 05:30:00,
2013-02-28 00:35:00,38.1,37.1,29.69,SE,127,0.0,0.0,96,0.00,,FEW060,0.00,VWS V14.01,2013-02-28 05:35:00,
2013-02-28 00:40:00,38.2,37.2,29.69,SE,127,0.0,0.0,96,0.00,,FEW060,0.00,VWS V14.01,2013-02-28 05:40:00,
2013-02-28 00:45:00,38.5,37.5,29.70,WNW,293,0.0,2.0,96,0.00,,FEW060,0.00,VWS V14.01,2013-02-28 05:45:00,
2013-02-28 00:50:00,39.1,38.3,29.70,West,278,0.0,1.0,97,0.00,,FEW060,0.00,VWS V14.01,2013-02-28 05:50:00,
2013-02-28 00:55:00,39.3,38.3,29.70,ESE,112,1.0,1.0,96,0.00,,FEW060,0.00,VWS V14.01,2013-02-28 05:55:00,
2013-02-28 01:00:00,39.5,38.2,29.70,SE,146,0.0,2.0,95,0.00,,FEW060,0.00,VWS V14.01,2013-02-28 06:00:00,
2013-02-28 01:10:00,39.2,37.6,29.70,SE,146,0.0,1.0,94,0.00,,FEW060,0.00,VWS V14.01,2013-02-28 06:10:00,
2013-02-28 01:15:00,38.9,37.3,29.70,SE,146,0.0,0.0,94,0.00,,FEW060,0.00,VWS V14.01,2013-02-28 06:15:00,
2013-02-28 01:20:00,38.6,37.0,29.70,SE,146,0.0,0.0,94,0.00,,FEW060,0.00,VWS V14.01,2013-02-28 06:20:00,
2013-02-28 01:25:00,38.4,36.8,29.70,SE,146,0.0,0.0,94,0.00,,FEW060,0.00,VWS V14.01,2013-02-28 06:25:00,
2013-02-28 01:30:00,38.2,36.9,29.71,SE,146,0.0,0.0,95,0.00,,FEW060,0.00,VWS V14.01,2013-02-28 06:30:00,
2013-02-28 01:35:00,38.2,36.9,29.71,SE,146,0.0,0.0,95,0.00,,FEW060,0.00,VWS V14.01,2013-02-28 06:35:00,
2013-02-28 01:40:00,38.1,36.8,29.71,SE,146,0.0,0.0,95,0.00,,FEW060,0.00,VWS V14.01,2013-02-28 06:40:00,
2013-02-28 01:50:00,38.1,37.1,29.72,SSE,148,0.0,0.0,96,0.00,,FEW060,0.00,VWS V14.01,2013-02-28 06:50:00,
2013-02-28 01:55:00,38.2,37.2,29.71,SSE,148,0.0,0.0,96,0.00,,FEW060,0.00,VWS V14.01,2013-02-28 06:55:00,
2013-02-28 02:00:00,38.1,37.1,29.71,SSE,148,0.0,0.0,96,0.00,,SCT042,0.00,VWS V14.01,2013-02-28 07:00:00,
2013-02-28 02:10:00,37.9,36.9,29.72,SSE,148,0.0,0.0,96,0.00,,SCT042,0.00,VWS V14.01,2013-02-28 07:10:00,
2013-02-28 02:15:00,37.8,36.8,29.71,SSE,148,0.0,0.0,96,0.00,,SCT042,0.00,VWS V14.01,2013-02-28 07:15:00,
2013-02-28 02:20:00,37.5,36.5,29.71,SSE,148,0.0,0.0,96,0.00,,SCT042,0.00,VWS V14.01,2013-02-28 07:20:00,
2013-02-28 02:25:00,37.4,36.4,29.71,SSE,148,0.0,0.0,96,0.00,,SCT042,0.00,VWS V14.01,2013-02-28 07:25:00,
2013-02-28 02:30:00,37.3,36.3,29.71,SSE,148,0.0,0.0,96,0.00,,SCT042,0.00,VWS V14.01,2013-02-28 07:30:00,
2013-02-28 02:35:00,37.1,36.1,29.71,SSE,148,0.0,0.0,96,0.00,,SCT042,0.00,VWS V14.01,2013-02-28 07:35:00,
2013-02-28 02:40:00,37.0,36.0,29.71,SSE,148,0.0,0.0,96,0.00,,SCT042,0.00,VWS V14.01,2013-02-28 07:40:00,
2013-02-28 02:45:00,37.0,36.0,29.70,SSE,148,0.0,0.0,96,0.00,,SCT042,0.00,VWS V14.01,2013-02-28 07:45:00,
2013-02-28 02:50:00,36.9,35.9,29.70,SSE,147,0.0,0.0,96,0.00,,SCT042,0.00,VWS V14.01,2013-02-28 07:50:00,
2013-02-28 02:55:00,36.9,35.9,29.70,SSE,147,0.0,0.0,96,0.00,,SCT042,0.00,VWS V14.01,2013-02-28 07:55:00,
2013-02-28 03:00:00,36.9,35.9,29.70,SSE,147,0.0,0.0,96,0.00,,FEW050,0.00,VWS V14.01,2013-02-28 08:00:00,
2013-02-28 03:10:00,36.9,35.9,29.70,SSE,147,0.0,0.0,96,0.00,,FEW050,0.00,VWS V14.01,2013-02-28 08:10:00,
2013-02-28 03:15:00,36.7,35.7,29.70,SSE,147,0.0,0.0,96,0.00,,FEW050,0.00,VWS V14.01,2013-02-28 08:15:00,
2013-02-28 03:20:00,36.7,35.7,29.70,SSE,147,0.0,0.0,96,0.00,,FEW050,0.00,VWS V14.01,2013-02-28 08:20:00,
2013-02-28 03:25:00,36.6,35.6,29.70,SSE,147,0.0,0.0,96,0.00,,FEW050,0.00,VWS V14.01,2013-02-28 08:25:00,
2013-02-28 03:30:00,36.4,35.4,29.70,SSE,147,0.0,0.0,96,0.00,,FEW050,0.00,VWS V14.01,2013-02-28 08:30:00,
2013-02-28 03:35:00,36.2,35.2,29.70,SSE,147,0.0,0.0,96,0.00,,FEW050,0.00,VWS V14.01,2013-02-28 08:35:00,
2013-02-28 03:40:00,36.0,35.0,29.70,SSE,147,0.0,0.0,96,0.00,,FEW050,0.00,VWS V14.01,2013-02-28 08:40:00,
2013-02-28 03:45:00,35.9,34.9,29.69,SSE,147,0.0,0.0,96,0.00,,FEW050,0.00,VWS V14.01,2013-02-28 08:45:00,
2013-02-28 03:50:00,35.6,34.6,29.70,SSE,147,0.0,0.0,96,0.00,,FEW050,0.00,VWS V14.01,2013-02-28 08:50:00,
2013-02-28 03:55:00,35.5,34.5,29.70,SSE,147,0.0,0.0,96,0.00,,FEW050,0.00,VWS V14.01,2013-02-28 08:55:00,
2013-02-28 04:00:00,35.3,34.3,29.70,SSE,147,0.0,0.0,96,0.00,,FEW050,0.00,VWS V14.01,2013-02-28 09:00:00,
2013-02-28 04:10:00,35.1,34.1,29.70,SSE,147,0.0,0.0,96,0.00,,FEW050,0.00,VWS V14.01,2013-02-28 09:10:00,
2013-02-28 04:15:00,34.9,33.9,29.70,SSE,147,0.0,0.0,96,0.00,,FEW050,0.00,VWS V14.01,2013-02-28 09:15:00,
2013-02-28 04:25:00,34.7,33.7,29.71,SSE,147,0.0,0.0,96,0.00,,FEW050,0.00,VWS V14.01,2013-02-28 09:25:00,
2013-02-28 04:30:00,34.7,33.9,29.71,SSE,147,0.0,0.0,97,0.00,,FEW050,0.00,VWS V14.01,2013-02-28 09:30:00,
2013-02-28 04:35:00,34.7,33.9,29.71,SSE,147,0.0,0.0,97,0.00,,FEW050,0.00,VWS V14.01,2013-02-28 09:35:00,
2013-02-28 04:40:00,34.6,33.8,29.71,SE,146,0.0,0.0,97,0.00,,FEW050,0.00,VWS V14.01,2013-02-28 09:40:00,
2013-02-28 04:45:00,34.4,33.4,29.71,SE,146,0.0,0.0,96,0.00,,FEW050,0.00,VWS V14.01,2013-02-28 09:45:00,
2013-02-28 04:50:00,34.4,33.6,29.72,SE,146,0.0,0.0,97,0.00,,FEW050,0.00,VWS V14.01,2013-02-28 09:50:00,
2013-02-28 04:55:00,34.3,33.5,29.72,SE,146,0.0,0.0,97,0.00,,FEW050,0.00,VWS V14.01,2013-02-28 09:55:00,
2013-02-28 05:00:00,34.1,33.3,29.72,SE,146,0.0,0.0,97,0.00,,FEW065,0.00,VWS V14.01,2013-02-28 10:00:00,
2013-02-28 05:10:00,34.0,33.2,29.72,SE,146,0.0,0.0,97,0.00,,FEW065,0.00,VWS V14.01,2013-02-28 10:10:00,
2013-02-28 05:15:00,33.9,33.1,29.72,SE,146,0.0,0.0,97,0.00,,FEW065,0.00,VWS V14.01,2013-02-28 10:15:00,
2013-02-28 05:20:00,33.7,32.7,29.72,SE,146,0.0,0.0,96,0.00,,FEW065,0.00,VWS V14.01,2013-02-28 10:20:00,
2013-02-28 05:25:00,33.6,32.6,29.73,SE,146,0.0,0.0,96,0.00,,FEW065,0.00,VWS V14.01,2013-02-28 10:25:00,
2013-02-28 05:30:00,33.4,32.4,29.73,SE,146,0.0,0.0,96,0.00,,FEW065,0.00,VWS V14.01,2013-02-28 10:30:00,
2013-02-28 05:35:00,33.3,32.5,29.73,SE,146,0.0,0.0,97,0.00,,FEW065,0.00,VWS V14.01,2013-02-28 10:35:00,
2013-02-28 05:40:00,33.3,32.5,29.73,SE,146,0.0,0.0,97,0.00,,FEW065,0.00,VWS V14.01,2013-02-28 10:40:00,
2013-02-28 05:50:00,33.1,32.3,29.73,SE,146,0.0,0.0,97,0.00,,FEW065,0.00,VWS V14.01,2013-02-28 10:50:00,
2013-02-28 05:55:00,33.1,32.3,29.73,SE,146,0.0,0.0,97,0.00,,FEW065,0.00,VWS V14.01,2013-02-28 10:55:00,
2013-02-28 06:00:00,33.1,32.3,29.73,SE,146,0.0,0.0,97,0.00,,BKN065,0.00,VWS V14.01,2013-02-28 11:00:00,
2013-02-28 06:10:00,33.4,32.6,29.74,SE,146,0.0,0.0,97,0.00,,BKN065,0.00,VWS V14.01,2013-02-28 11:10:00,
2013-02-28 06:15:00,33.5,32.7,29.74,SE,146,0.0,0.0,97,0.00,,BKN065,0.00,VWS V14.01,2013-02-28 11:15:00,
2013-02-28 06:20:00,33.6,32.8,29.74,SE,146,0.0,0.0,97,0.00,,BKN065,0.00,VWS V14.01,2013-02-28 11:20:00,
2013-02-28 06:25:00,33.8,33.0,29.74,SE,146,0.0,0.0,97,0.00,,BKN065,0.00,VWS V14.01,2013-02-28 11:25:00,
2013-02-28 06:30:00,34.0,33.2,29.74,SE,146,0.0,0.0,97,0.00,,BKN065,0.00,VWS V14.01,2013-02-28 11:30:00,
2013-02-28 06:35:00,34.1,33.3,29.74,SE,146,0.0,0.0,97,0.00,,BKN065,0.00,VWS V14.01,2013-02-28 11:35:00,
2013-02-28 06:40:00,34.4,33.6,29.74,SE,146,0.0,0.0,97,0.00,,BKN065,0.00,VWS V14.01,2013-02-28 11:40:00,
2013-02-28 06:45:00,34.6,33.8,29.74,SE,146,0.0,0.0,97,0.00,,BKN065,0.00,VWS V14.01,2013-02-28 11:45:00,
2013-02-28 06:50:00,34.9,34.1,29.74,SE,146,0.0,0.0,97,0.00,,BKN065,0.00,VWS V14.01,2013-02-28 11:50:00,
2013-02-28 06:55:00,35.2,34.4,29.75,SE,146,0.0,0.0,97,0.00,,BKN065,0.00,VWS V14.01,2013-02-28 11:55:00,
2013-02-28 07:00:00,35.3,34.5,29.75,SE,146,0.0,0.0,97,0.00,,BKN065,0.00,VWS V14.01,2013-02-28 12:00:00,
2013-02-28 07:10:00,35.7,34.9,29.75,SE,146,0.0,0.0,97,0.00,,BKN065,0.00,VWS V14.01,2013-02-28 12:10:00,
2013-02-28 07:15:00,36.0,35.2,29.75,SE,146,0.0,0.0,97,0.00,,BKN065,0.00,VWS V14.01,2013-02-28 12:15:00,
2013-02-28 07:20:00,36.2,35.4,29.76,SE,146,0.0,0.0,97,0.00,,BKN065,0.00,VWS V14.01,2013-02-28 12:20:00,
2013-02-28 07:25:00,36.4,35.6,29.76,SE,146,0.0,0.0,97,0.00,,BKN065,0.00,VWS V14.01,2013-02-28 12:25:00,
2013-02-28 07:30:00,36.6,35.8,29.76,SE,146,0.0,0.0,97,0.00,,BKN065,0.00,VWS V14.01,2013-02-28 12:30:00,
2013-02-28 07:35:00,36.8,36.3,29.76,SE,146,0.0,0.0,98,0.00,,BKN065,0.00,VWS V14.01,2013-02-28 12:35:00,
2013-02-28 07:40:00,37.1,36.6,29.76,SE,146,0.0,0.0,98,0.00,,BKN065,0.00,VWS V14.01,2013-02-28 12:40:00,
2013-02-28 07:45:00,37.4,36.9,29.76,SE,146,0.0,0.0,98,0.00,,BKN065,0.00,VWS V14.01,2013-02-28 12:45:00,
2013-02-28 07:50:00,37.7,37.2,29.76,SE,146,0.0,0.0,98,0.00,,BKN065,0.00,VWS V14.01,2013-02-28 12:50:00,
2013-02-28 07:55:00,37.9,37.4,29.76,SE,146,0.0,0.0,98,0.00,,BKN065,0.00,VWS V14.01,2013-02-28 12:55:00,
2013-02-28 08:00:00,38.3,37.8,29.76,SE,146,0.0,0.0,98,0.00,,BKN200,0.00,VWS V14.01,2013-02-28 13:00:00,
2013-02-28 08:10:00,38.8,38.3,29.76,SE,142,0.0,0.0,98,0.00,,BKN200,0.00,VWS V14.01,2013-02-28 13:10:00,
2013-02-28 08:15:00,39.1,38.6,29.76,SE,142,0.0,0.0,98,0.00,,BKN200,0.00,VWS V14.01,2013-02-28 13:15:00,
2013-02-28 08:20:00,39.6,39.1,29.76,SE,143,0.0,0.0,98,0.00,,BKN200,0.00,VWS V14.01,2013-02-28 13:20:00,
2013-02-28 08:25:00,40.0,39.5,29.76,SE,143,0.0,0.0,98,0.00,,BKN200,0.00,VWS V14.01,2013-02-28 13:25:00,
2013-02-28 08:30:00,40.5,40.0,29.76,SE,143,0.0,0.0,98,0.00,,BKN200,0.00,VWS V14.01,2013-02-28 13:30:00,
2013-02-28 08:35:00,40.9,40.4,29.76,SE,143,0.0,0.0,98,0.00,,BKN200,0.00,VWS V14.01,2013-02-28 13:35:00,
2013-02-28 08:40:00,41.2,40.7,29.76,SE,143,0.0,0.0,98,0.00,,BKN200,0.00,VWS V14.01,2013-02-28 13:40:00,
2013-02-28 08:45:00,41.5,39.9,29.76,WSW,240,0.0,1.0,94,0.00,,BKN200,0.00,VWS V14.01,2013-02-28 13:45:00,
2013-02-28 08:50:00,42.1,38.5,29.76,WSW,240,0.0,0.0,87,0.00,,BKN200,0.00,VWS V14.01,2013-02-28 13:50:00,
2013-02-28 08:55:00,42.4,37.0,29.77,West,278,0.0,1.0,81,0.00,,BKN200,0.00,VWS V14.01,2013-02-28 13:55:00,
2013-02-28 09:00:00,42.7,37.0,29.77,West,264,0.0,2.0,80,0.00,,BKN200,0.00,VWS V14.01,2013-02-28 14:00:00,
2013-02-28 09:10:00,43.0,37.3,29.76,WSW,249,0.0,1.0,80,0.00,,BKN200,0.00,VWS V14.01,2013-02-28 14:10:00,
2013-02-28 09:15:00,43.1,37.7,29.76,West,259,0.0,1.0,81,0.00,,BKN200,0.00,VWS V14.01,2013-02-28 14:15:00,
2013-02-28 09:20:00,43.3,37.9,29.76,West,259,0.0,0.0,81,0.00,,BKN200,0.00,VWS V14.01,2013-02-28 14:20:00,
2013-02-28 09:25:00,43.5,37.4,29.76,WSW,252,0.0,1.0,79,0.00,,BKN200,0.00,VWS V14.01,2013-02-28 14:25:00,
2013-02-28 09:30:00,43.6,36.5,29.76,West,261,1.0,1.0,76,0.00,,BKN200,0.00,VWS V14.01,2013-02-28 14:30:00,
2013-02-28 09:35:00,43.8,36.7,29.76,West,269,0.0,1.0,76,0.00,,BKN200,0.00,VWS V14.01,2013-02-28 14:35:00,
2013-02-28 09:40:00,43.9,35.8,29.77,West,259,0.0,1.0,73,0.00,,BKN200,0.00,VWS V14.01,2013-02-28 14:40:00,
2013-02-28 09:45:00,44.0,36.6,29.77,WSW,250,0.0,1.0,75,0.00,,BKN200,0.00,VWS V14.01,2013-02-28 14:45:00,
2013-02-28 09:50:00,44.1,35.0,29.77,WSW,253,0.0,1.0,70,0.00,,BKN200,0.00,VWS V14.01,2013-02-28 14:50:00,
2013-02-28 09:55:00,44.1,35.7,29.77,West,269,0.0,2.0,72,0.00,,BKN200,0.00,VWS V14.01,2013-02-28 14:55:00,
2013-02-28 10:00:00,44.2,35.8,29.77,WSW,250,0.0,1.0,72,0.00,,BKN200,0.00,VWS V14.01,2013-02-28 15:00:00,
2013-02-28 10:10:00,44.5,35.0,29.76,West,266,0.0,1.0,69,0.00,,BKN200,0.00,VWS V14.01,2013-02-28 15:10:00,
2013-02-28 10:15:00,44.5,34.2,29.76,WSW,247,0.0,2.0,67,0.00,,BKN200,0.00,VWS V14.01,2013-02-28 15:15:00,
2013-02-28 10:20:00,44.4,33.8,29.77,WNW,288,1.0,3.0,66,0.00,,BKN200,0.00,VWS V14.01,2013-02-28 15:20:00,
2013-02-28 10:25:00,44.4,33.8,29.77,West,269,0.0,2.0,66,0.00,,BKN200,0.00,VWS V14.01,2013-02-28 15:25:00,
2013-02-28 10:30:00,44.4,33.8,29.77,WSW,249,1.0,3.0,66,0.00,,BKN200,0.00,VWS V14.01,2013-02-28 15:30:00,
2013-02-28 10:35:00,44.5,32.3,29.77,SSW,210,0.0,3.0,62,0.00,,BKN200,0.00,VWS V14.01,2013-02-28 15:35:00,
2013-02-28 10:40:00,44.7,33.3,29.77,WSW,258,0.0,2.0,64,0.00,,BKN200,0.00,VWS V14.01,2013-02-28 15:40:00,
2013-02-28 10:45:00,44.8,34.2,29.77,WSW,256,0.0,2.0,66,0.00,,BKN200,0.00,VWS V14.01,2013-02-28 15:45:00,
2013-02-28 10:50:00,45.1,32.5,29.76,SW,229,1.0,4.0,61,0.00,,BKN200,0.00,VWS V14.01,2013-02-28 15:50:00,
2013-02-28 10:55:00,45.2,33.0,29.76,WNW,282,0.0,2.0,62,0.00,,BKN200,0.00,VWS V14.01,2013-02-28 15:55:00,
2013-02-28 11:00:00,45.3,32.2,29.77,West,267,3.0,4.0,60,0.00,,BKN070,0.00,VWS V14.01,2013-02-28 16:00:00,
2013-02-28 11:10:00,45.5,32.0,29.77,WSW,252,2.0,2.0,59,0.00,,BKN070,0.00,VWS V14.01,2013-02-28 16:10:00,
2013-02-28 11:15:00,45.6,32.5,29.76,WSW,239,2.0,4.0,60,0.00,,BKN070,0.00,VWS V14.01,2013-02-28 16:15:00,
2013-02-28 11:20:00,45.8,32.3,29.77,WSW,256,0.0,3.0,59,0.00,,BKN070,0.00,VWS V14.01,2013-02-28 16:20:00,
2013-02-28 11:25:00,45.9,32.4,29.77,West,263,0.0,2.0,59,0.00,,BKN070,0.00,VWS V14.01,2013-02-28 16:25:00,
2013-02-28 11:30:00,46.1,32.6,29.76,WNW,282,1.0,5.0,59,0.00,,BKN070,0.00,VWS V14.01,2013-02-28 16:30:00,
2013-02-28 11:35:00,46.4,32.9,29.76,West,278,1.0,2.0,59,0.00,,BKN070,0.00,VWS V14.01,2013-02-28 16:35:00,
2013-02-28 11:40:00,46.6,32.6,29.76,West,259,0.0,2.0,58,0.00,,BKN070,0.00,VWS V14.01,2013-02-28 16:40:00,
2013-02-28 11:45:00,46.7,32.3,29.76,SW,232,0.0,5.0,57,0.00,,BKN070,0.00,VWS V14.01,2013-02-28 16:45:00,
2013-02-28 11:50:00,47.0,32.6,29.76,WNW,294,1.0,2.0,57,0.00,,BKN070,0.00,VWS V14.01,2013-02-28 16:50:00,
2013-02-28 11:55:00,47.1,31.8,29.76,WSW,258,1.0,7.0,55,0.00,,BKN070,0.00,VWS V14.01,2013-02-28 16:55:00,
2013-02-28 12:00:00,47.0,31.7,29.76,NW,311,0.0,4.0,55,0.00,,OVC070,0.00,VWS V14.01,2013-02-28 17:00:00,
2013-02-28 12:10:00,47.2,32.3,29.76,West,264,0.0,2.0,56,0.00,,OVC070,0.00,VWS V14.01,2013-02-28 17:10:00,
2013-02-28 12:15:00,47.5,31.7,29.75,WSW,254,1.0,7.0,54,0.00,,OVC070,0.00,VWS V14.01,2013-02-28 17:15:00,
2013-02-28 12:20:00,47.9,32.1,29.75,West,273,2.0,4.0,54,0.00,,OVC070,0.00,VWS V14.01,2013-02-28 17:20:00,
2013-02-28 12:25:00,47.9,31.6,29.75,WNW,293,4.0,9.0,53,0.00,,OVC070,0.00,VWS V14.01,2013-02-28 17:25:00,
2013-02-28 12:30:00,48.0,31.2,29.75,SW,236,2.0,10.0,52,0.00,,OVC070,0.00,VWS V14.01,2013-02-28 17:30:00,
2013-02-28 12:35:00,48.0,32.2,29.75,WSW,250,3.0,3.0,54,0.00,,OVC070,0.00,VWS V14.01,2013-02-28 17:35:00,
2013-02-28 12:40:00,47.8,30.6,29.75,West,265,2.0,6.0,51,0.00,,OVC070,0.00,VWS V14.01,2013-02-28 17:40:00,
2013-02-28 12:45:00,47.5,30.8,29.74,WNW,293,5.0,9.0,52,0.00,,OVC070,0.00,VWS V14.01,2013-02-28 17:45:00,
2013-02-28 12:50:00,47.4,30.2,29.74,WNW,287,0.0,7.0,51,0.00,,OVC070,0.00,VWS V14.01,2013-02-28 17:50:00,
2013-02-28 12:55:00,47.3,30.1,29.74,WNW,288,1.0,8.0,51,0.00,,OVC070,0.00,VWS V14.01,2013-02-28 17:55:00,
2013-02-28 13:00:00,47.3,31.0,29.74,WSW,245,0.0,8.0,53,0.00,,BKN060,0.00,VWS V14.01,2013-02-28 18:00:00,
2013-02-28 13:10:00,47.3,29.6,29.74,NNW,345,0.0,2.0,50,0.00,,BKN060,0.00,VWS V14.01,2013-02-28 18:10:00,
2013-02-28 13:15:00,47.6,30.4,29.74,WSW,252,1.0,1.0,51,0.00,,BKN060,0.00,VWS V14.01,2013-02-28 18:15:00,
2013-02-28 13:20:00,47.9,30.2,29.74,WSW,255,2.0,6.0,50,0.00,,BKN060,0.00,VWS V14.01,2013-02-28 18:20:00,
2013-02-28 13:25:00,48.2,29.5,29.73,WNW,296,4.0,8.0,48,0.00,,BKN060,0.00,VWS V14.01,2013-02-28 18:25:00,
2013-02-28 13:30:00,48.2,28.9,29.73,West,280,3.0,10.0,47,0.00,,BKN060,0.00,VWS V14.01,2013-02-28 18:30:00,
2013-02-28 13:35:00,48.3,29.0,29.73,West,263,3.0,7.0,47,0.00,,BKN060,0.00,VWS V14.01,2013-02-28 18:35:00,
2013-02-28 13:40:00,48.4,28.6,29.73,WNW,295,2.0,10.0,46,0.00,,BKN060,0.00,VWS V14.01,2013-02-28 18:40:00,
2013-02-28 13:45:00,48.4,29.1,29.73,West,276,8.0,9.0,47,0.00,,BKN060,0.00,VWS V14.01,2013-02-28 18:45:00,
2013-02-28 13:50:00,48.3,28.0,29.73,WSW,255,6.0,9.0,45,0.00,,BKN060,0.00,VWS V14.01,2013-02-28 18:50:00,
2013-02-28 13:55:00,48.1,28.3,29.73,SW,231,2.0,12.0,46,0.00,,BKN060,0.00,VWS V14.01,2013-02-28 18:55:00,
2013-02-28 14:00:00,47.8,29.1,29.74,WNW,284,5.0,5.0,48,0.00,,BKN070,0.00,VWS V14.01,2013-02-28 19:00:00,
2013-02-28 14:10:00,47.0,28.9,29.74,WNW,290,1.0,9.0,49,0.00,,BKN070,0.00,VWS V14.01,2013-02-28 19:10:00,
2013-02-28 14:15:00,46.9,28.2,29.74,North,349,0.0,3.0,48,0.00,,BKN070,0.00,VWS V14.01,2013-02-28 19:15:00,
2013-02-28 14:20:00,47.1,28.9,29.74,West,269,3.0,4.0,49,0.00,,BKN070,0.00,VWS V14.01,2013-02-28 19:20:00,
2013-02-28 14:25:00,47.5,28.8,29.73,WSW,254,0.0,5.0,48,0.00,,BKN070,0.00,VWS V14.01,2013-02-28 19:25:00,
2013-02-28 14:30:00,47.6,29.4,29.74,SW,218,1.0,3.0,49,0.00,,BKN070,0.00,VWS V14.01,2013-02-28 19:30:00,
2013-02-28 14:35:00,47.5,28.8,29.74,NW,323,0.0,4.0,48,0.00,,BKN070,0.00,VWS V14.01,2013-02-28 19:35:00,
2013-02-28 14:40:00,47.4,28.7,29.74,WNW,294,1.0,4.0,48,0.00,,BKN070,0.00,VWS V14.01,2013-02-28 19:40:00,
2013-02-28 14:45:00,47.4,29.2,29.74,WNW,291,1.0,6.0,49,0.00,,BKN070,0.00,VWS V14.01,2013-02-28 19:45:00,
2013-02-28 14:50:00,47.7,29.5,29.74,WNW,294,2.0,6.0,49,0.00,,BKN070,0.00,VWS V14.01,2013-02-28 19:50:00,
2013-02-28 14:55:00,48.0,29.3,29.74,West,280,0.0,5.0,48,0.00,,BKN070,0.00,VWS V14.01,2013-02-28 19:55:00,
2013-02-28 15:00:00,47.9,29.7,29.74,West,266,3.0,3.0,49,0.00,,BKN075,0.00,VWS V14.01,2013-02-28 20:00:00,
2013-02-28 15:05:00,47.8,29.6,29.74,West,265,0.0,3.0,49,0.00,,BKN075,0.00,VWS V14.01,2013-02-28 20:05:00,
2013-02-28 15:10:00,47.7,29.5,29.74,WNW,302,0.0,5.0,49,0.00,,BKN075,0.00,VWS V14.01,2013-02-28 20:10:00,
2013-02-28 15:15:00,47.7,29.5,29.74,West,273,0.0,3.0,49,0.00,,BKN075,0.00,VWS V14.01,2013-02-28 20:15:00,
2013-02-28 15:20:00,47.9,29.7,29.74,West,265,4.0,5.0,49,0.00,,BKN075,0.00,VWS V14.01,2013-02-28 20:20:00,
2013-02-28 15:25:00,48.3,30.5,29.74,WSW,242,2.0,5.0,50,0.00,,BKN075,0.00,VWS V14.01,2013-02-28 20:25:00,
2013-02-28 15:30:00,49.3,29.9,29.74,WSW,245,4.0,4.0,47,0.00,,BKN075,0.00,VWS V14.01,2013-02-28 20:30:00,
2013-02-28 15:35:00,49.3,28.9,29.74,WNW,295,0.0,9.0,45,0.00,,BKN075,0.00,VWS V14.01,2013-02-28 20:35:00,
2013-02-28 15:40:00,48.7,28.9,29.74,SW,236,1.0,10.0,46,0.00,,BKN075,0.00,VWS V14.01,2013-02-28 20:40:00,
2013-02-28 15:45:00,48.4,28.0,29.74,West,278,4.0,8.0,45,0.00,,BKN075,0.00,VWS V14.01,2013-02-28 20:45:00,
2013-02-28 15:50:00,48.3,29.0,29.74,WSW,254,1.0,6.0,47,0.00,,BKN075,0.00,VWS V14.01,2013-02-28 20:50:00,
2013-02-28 15:55:00,48.1,28.8,29.74,WNW,285,0.0,3.0,47,0.00,,BKN075,0.00,VWS V14.01,2013-02-28 20:55:00,
2013-02-28 16:00:00,48.1,27.8,29.74,WNW,289,1.0,8.0,45,0.00,,BKN075,0.00,VWS V14.01,2013-02-28 21:00:00,
2013-02-28 16:05:00,48.1,27.2,29.74,WNW,293,0.0,4.0,44,0.00,,BKN075,0.00,VWS V14.01,2013-02-28 21:05:00,
2013-02-28 16:10:00,48.0,27.1,29.74,West,265,1.0,3.0,44,0.00,,BKN075,0.00,VWS V14.01,2013-02-28 21:10:00,
2013-02-28 16:15:00,48.0,27.1,29.75,West,260,1.0,3.0,44,0.00,,BKN075,0.00,VWS V14.01,2013-02-28 21:15:00,
2013-02-28 16:20:00,48.0,28.2,29.75,WNW,284,0.0,2.0,46,0.00,,BKN075,0.00,VWS V14.01,2013-02-28 21:20:00,
2013-02-28 16:25:00,48.0,27.7,29.75,West,270,1.0,3.0,45,0.00,,BKN075,0.00,VWS V14.01,2013-02-28 21:25:00,
2013-02-28 16:30:00,47.9,27.6,29.75,WSW,250,0.0,4.0,45,0.00,,BKN075,0.00,VWS V14.01,2013-02-28 21:30:00,
2013-02-28 16:35:00,47.9,27.6,29.75,WNW,288,1.0,6.0,45,0.00,,BKN075,0.00,VWS V14.01,2013-02-28 21:35:00,
2013-02-28 16:40:00,47.8,28.0,29.75,WNW,285,1.0,5.0,46,0.00,,BKN075,0.00,VWS V14.01,2013-02-28 21:40:00,
2013-02-28 16:45:00,47.7,27.4,29.76,WSW,253,7.0,7.0,45,0.00,,BKN075,0.00,VWS V14.01,2013-02-28 21:45:00,
2013-02-28 16:50:00,47.6,27.3,29.76,WNW,295,1.0,8.0,45,0.00,,BKN075,0.00,VWS V14.01,2013-02-28 21:50:00,
2013-02-28 16:55:00,47.5,27.8,29.76,WSW,255,6.0,6.0,46,0.00,,BKN075,0.00,VWS V14.01,2013-02-28 21:55:00,
2013-02-28 17:00:00,47.4,27.1,29.76,West,274,0.0,6.0,45,0.00,,BKN075,0.00,VWS V14.01,2013-02-28 22:00:00,
2013-02-28 17:10:00,47.3,28.1,29.76,West,279,1.0,3.0,47,0.00,,BKN075,0.00,VWS V14.01,2013-02-28 22:10:00,
2013-02-28 17:15:00,47.2,27.0,29.76,WNW,291,0.0,6.0,45,0.00,,BKN075,0.00,VWS V14.01,2013-02-28 22:15:00,
2013-02-28 17:20:00,47.2,27.0,29.76,West,274,1.0,3.0,45,0.00,,BKN075,0.00,VWS V14.01,2013-02-28 22:20:00,
2013-02-28 17:25:00,47.2,27.5,29.76,West,281,0.0,1.0,46,0.00,,BKN075,0.00,VWS V14.01,2013-02-28 22:25:00,
2013-02-28 17:30:00,47.2,28.0,29.77,West,262,0.0,2.0,47,0.00,,BKN075,0.00,VWS V14.01,2013-02-28 22:30:00,
2013-02-28 17:35:00,47.2,27.5,29.77,West,269,0.0,2.0,46,0.00,,BKN075,0.00,VWS V14.01,2013-02-28 22:35:00,
2013-02-28 17:40:00,46.9,28.2,29.77,West,266,0.0,2.0,48,0.00,,BKN075,0.00,VWS V14.01,2013-02-28 22:40:00,
2013-02-28 17:45:00,46.7,27.0,29.77,WSW,257,1.0,4.0,46,0.00,,BKN075,0.00,VWS V14.01,2013-02-28 22:45:00,
2013-02-28 17:50:00,46.6,27.5,29.77,WNW,298,0.0,2.0,47,0.00,,BKN075,0.00,VWS V14.01,2013-02-28 22:50:00,
2013-02-28 18:00:00,46.4,27.3,29.77,SW,215,2.0,6.0,47,0.00,,BKN065,0.00,VWS V14.01,2013-02-28 23:00:00,
2013-02-28 18:10:00,45.9,26.8,29.77,West,276,1.0,5.0,47,0.00,,BKN065,0.00,VWS V14.01,2013-02-28 23:10:00,
2013-02-28 18:15:00,45.5,27.0,29.77,WSW,254,0.0,3.0,48,0.00,,BKN065,0.00,VWS V14.01,2013-02-28 23:15:00,
2013-02-28 18:20:00,45.4,26.9,29.78,SW,232,0.0,3.0,48,0.00,,BKN065,0.00,VWS V14.01,2013-02-28 23:20:00,
2013-02-28 18:25:00,45.1,27.1,29.78,West,259,1.0,3.0,49,0.00,,BKN065,0.00,VWS V14.01,2013-02-28 23:25:00,
2013-02-28 18:30:00,44.8,27.3,29.78,WSW,258,0.0,2.0,50,0.00,,BKN065,0.00,VWS V14.01,2013-02-28 23:30:00,
2013-02-28 18:35:00,44.6,27.1,29.78,West,263,0.0,1.0,50,0.00,,BKN065,0.00,VWS V14.01,2013-02-28 23:35:00,
2013-02-28 18:40:00,44.4,27.4,29.79,West,260,0.0,1.0,51,0.00,,BKN065,0.00,VWS V14.01,2013-02-28 23:40:00,
2013-02-28 18:45:00,44.1,27.1,29.79,WSW,258,0.0,1.0,51,0.00,,BKN065,0.00,VWS V14.01,2013-02-28 23:45:00,
2013-02-28 18:50:00,43.9,27.0,29.79,West,259,0.0,1.0,51,0.00,,BKN065,0.00,VWS V14.01,2013-02-28 23:50:00,
2013-02-28 18:55:00,43.7,27.2,29.79,WSW,250,0.0,2.0,52,0.00,,BKN065,0.00,VWS V14.01,2013-02-28 23:55:00,
2013-02-28 19:00:00,43.4,27.4,29.79,WSW,250,0.0,1.0,53,0.00,,FEW065,0.00,VWS V14.01,2013-03-01 00:00:00,
2013-02-28 19:10:00,42.9,27.9,29.80,WSW,255,0.0,0.0,55,0.00,,FEW065,0.00,VWS V14.01,2013-03-01 00:10:00,
2013-02-28 19:15:00,42.2,28.1,29.80,WSW,255,0.0,0.0,57,0.00,,FEW065,0.00,VWS V14.01,2013-03-01 00:15:00,
2013-02-28 19:20:00,41.6,27.9,29.80,WSW,255,0.0,0.0,58,0.00,,FEW065,0.00,VWS V14.01,2013-03-01 00:20:00,
2013-02-28 19:25:00,41.3,28.5,29.80,WSW,255,0.0,1.0,60,0.00,,FEW065,0.00,VWS V14.01,2013-03-01 00:25:00,
2013-02-28 19:30:00,40.8,31.1,29.80,WSW,255,0.0,0.0,68,0.00,,FEW065,0.00,VWS V14.01,2013-03-01 00:30:00,
2013-02-28 19:35:00,40.0,32.4,29.80,WSW,255,0.0,0.0,74,0.00,,FEW065,0.00,VWS V14.01,2013-03-01 00:35:00,
2013-02-28 19:40:00,38.9,30.7,29.81,WSW,255,0.0,0.0,72,0.00,,FEW065,0.00,VWS V14.01,2013-03-01 00:40:00,
2013-02-28 19:45:00,38.2,29.6,29.81,WSW,255,0.0,0.0,71,0.00,,FEW065,0.00,VWS V14.01,2013-03-01 00:45:00,
2013-02-28 19:50:00,37.6,30.1,29.81,WSW,255,0.0,0.0,74,0.00,,FEW065,0.00,VWS V14.01,2013-03-01 00:50:00,
2013-02-28 19:55:00,37.1,30.9,29.81,WSW,255,0.0,0.0,78,0.00,,FEW065,0.00,VWS V14.01,2013-03-01 00:55:00,
2013-02-28 20:00:00,36.9,31.0,29.81,WSW,255,0.0,0.0,79,0.00,,FEW065,0.00,VWS V14.01,2013-03-01 01:00:00,
2013-02-28 20:10:00,36.8,31.2,29.82,West,259,0.0,0.0,80,0.00,,FEW065,0.00,VWS V14.01,2013-03-01 01:10:00,
2013-02-28 20:15:00,37.3,29.5,29.81,WSW,250,0.0,1.0,73,0.00,,FEW065,0.00,VWS V14.01,2013-03-01 01:15:00,
2013-02-28 20:20:00,37.8,32.2,29.81,NW,313,0.0,1.0,80,0.00,,FEW065,0.00,VWS V14.01,2013-03-01 01:20:00,
2013-02-28 20:30:00,36.7,31.4,29.82,NW,313,0.0,0.0,81,0.00,,FEW065,0.00,VWS V14.01,2013-03-01 01:30:00,
2013-02-28 20:40:00,35.8,32.3,29.82,NW,313,0.0,0.0,87,0.00,,FEW065,0.00,VWS V14.01,2013-03-01 01:40:00,
2013-02-28 20:45:00,35.4,31.6,29.82,NW,313,0.0,0.0,86,0.00,,FEW065,0.00,VWS V14.01,2013-03-01 01:45:00,
2013-02-28 20:50:00,35.0,31.2,29.83,NW,313,0.0,0.0,86,0.00,,FEW065,0.00,VWS V14.01,2013-03-01 01:50:00,
2013-02-28 20:55:00,34.7,31.2,29.83,NW,313,0.0,0.0,87,0.00,,FEW065,0.00,VWS V14.01,2013-03-01 01:55:00,
2013-02-28 21:00:00,34.5,30.5,29.83,NW,313,0.0,0.0,85,0.00,,FEW065,0.00,VWS V14.01,2013-03-01 02:00:00,
2013-02-28 21:10:00,34.2,29.3,29.83,NW,313,0.0,0.0,82,0.00,,FEW065,0.00,VWS V14.01,2013-03-01 02:10:00,
2013-02-28 21:15:00,34.1,30.1,29.83,NW,313,0.0,0.0,85,0.00,,FEW065,0.00,VWS V14.01,2013-03-01 02:15:00,
2013-02-28 21:20:00,33.9,30.7,29.83,NW,313,0.0,0.0,88,0.00,,FEW065,0.00,VWS V14.01,2013-03-01 02:20:00,
2013-02-28 21:25:00,33.6,30.4,29.84,NW,313,0.0,0.0,88,0.00,,FEW065,0.00,VWS V14.01,2013-03-01 02:25:00,
2013-02-28 21:30:00,33.5,30.9,29.84,NW,313,0.0,0.0,90,0.00,,FEW065,0.00,VWS V14.01,2013-03-01 02:30:00,
2013-02-28 21:35:00,33.2,30.6,29.84,NW,314,0.0,0.0,90,0.00,,FEW065,0.00,VWS V14.01,2013-03-01 02:35:00,
2013-02-28 21:40:00,32.9,30.0,29.84,NW,314,0.0,0.0,89,0.00,,FEW065,0.00,VWS V14.01,2013-03-01 02:40:00,
2013-02-28 21:45:00,32.7,29.5,29.84,NW,314,0.0,0.0,88,0.00,,FEW065,0.00,VWS V14.01,2013-03-01 02:45:00,
2013-02-28 21:50:00,32.6,29.5,29.85,NW,314,0.0,0.0,88,0.00,,FEW065,0.00,VWS V14.01,2013-03-01 02:50:00,
2013-02-28 21:55:00,32.5,29.4,29.85,NW,314,0.0,0.0,88,0.00,,FEW065,0.00,VWS V14.01,2013-03-01 02:55:00,
2013-02-28 22:00:00,32.5,29.9,29.85,NW,314,0.0,0.0,90,0.00,,FEW065,0.00,VWS V14.01,2013-03-01 03:00:00,
2013-02-28 22:10:00,32.5,30.2,29.85,NW,314,0.0,0.0,91,0.00,,FEW060,0.00,VWS V14.01,2013-03-01 03:10:00,
2013-02-28 22:15:00,32.3,30.0,29.85,NW,314,0.0,0.0,91,0.00,,FEW060,0.00,VWS V14.01,2013-03-01 03:15:00,
2013-02-28 22:20:00,32.2,30.1,29.85,NW,314,0.0,0.0,92,0.00,,FEW060,0.00,VWS V14.01,2013-03-01 03:20:00,
2013-02-28 22:25:00,32.2,30.1,29.85,NW,314,0.0,0.0,92,0.00,,FEW060,0.00,VWS V14.01,2013-03-01 03:25:00,
2013-02-28 22:35:00,31.7,29.1,29.85,NW,314,0.0,0.0,90,0.00,,FEW060,0.00,VWS V14.01,2013-03-01 03:35:00,
2013-02-28 22:40:00,31.5,28.9,29.85,NW,314,0.0,0.0,90,0.00,,FEW060,0.00,VWS V14.01,2013-03-01 03:40:00,
2013-02-28 22:50:00,31.1,28.5,29.85,NW,314,0.0,0.0,90,0.00,,FEW060,0.00,VWS V14.01,2013-03-01 03:50:00,
2013-02-28 22:55:00,30.9,28.3,29.85,NE,51,0.0,0.0,90,0.00,,FEW060,0.00,VWS V14.01,2013-03-01 03:55:00,
2013-02-28 23:00:00,30.8,28.5,29.85,NE,51,0.0,0.0,91,0.00,,FEW044,0.00,VWS V14.01,2013-03-01 04:00:00,
2013-02-28 23:10:00,30.7,28.7,29.85,East,79,0.0,1.0,92,0.00,,FEW044,0.00,VWS V14.01,2013-03-01 04:10:00,
2013-02-28 23:15:00,30.6,28.6,29.85,East,79,0.0,0.0,92,0.00,,FEW044,0.00,VWS V14.01,2013-03-01 04:15:00,
2013-02-28 23:20:00,30.5,28.5,29.85,East,79,0.0,0.0,92,0.00,,FEW044,0.00,VWS V14.01,2013-03-01 04:20:00,
2013-02-28 23:25:00,30.5,28.5,29.85,East,79,0.0,0.0,92,0.00,,FEW044,0.00,VWS V14.01,2013-03-01 04:25:00,
2013-02-28 23:30:00,30.4,28.4,29.85,East,79,0.0,0.0,92,0.00,,FEW044,0.00,VWS V14.01,2013-03-01 04:30:00,
2013-02-28 23:35:00,30.4,28.4,29.85,East,79,0.0,0.0,92,0.00,,FEW044,0.00,VWS V14.01,2013-03-01 04:35:00,
2013-02-28 23:40:00,30.2,28.4,29.85,East,98,0.0,1.0,93,0.00,,FEW044,0.00,VWS V14.01,2013-03-01 04:40:00,
2013-02-28 23:45:00,30.1,28.1,29.85,ESE,104,0.0,1.0,92,0.00,,FEW044,0.00,VWS V14.01,2013-03-01 04:45:00,
2013-02-28 23:50:00,30.0,27.7,29.85,ESE,104,0.0,1.0,91,0.00,,FEW044,0.00,VWS V14.01,2013-03-01 04:50:00,
2013-02-28 23:55:00,30.0,28.0,29.85,ESE,104,0.0,0.0,92,0.00,,FEW044,0.00,VWS V14.01,2013-03-01 04:55:00,